This is the latest recevied weather packets stored in our database for station/object HB9TJM-8. If no packets are shown the sender has not sent any weather packets the latest 10 day(s).
| Time | Temp. | Humidity | Pressure | Rain* | Wind** | Luminosity | Snow |
|---|---|---|---|---|---|---|---|
| 1777568319 | 13.89° C | 45% | 1020.6 hPa | 0 mm | - | 46 W/m² | - |
| 1777568011 | 14.44° C | 45% | 1020.6 hPa | 0 mm | - | 47 W/m² | - |
| 1777567396 | 14.44° C | 48% | 1020.4 hPa | 0 mm | - | 49 W/m² | - |
| 1777567088 | 14.44° C | 48% | 1020 hPa | 0 mm | - | 50 W/m² | - |
| 1777566780 | 14.44° C | 50% | 1020.8 hPa | 0 mm | - | 51 W/m² | - |
| 1777566164 | 14.44° C | 50% | 1020.5 hPa | 0 mm | - | 54 W/m² | - |
| 1777565856 | 14.44° C | 49% | 1020.9 hPa | 0 mm | - | 77 W/m² | - |
| 1777565241 | 14.44° C | 48% | 1020.5 hPa | 0 mm | - | 111 W/m² | - |
| 1777564934 | 14.44° C | 49% | 1020.7 hPa | 0 mm | - | 56 W/m² | - |
| 1777564626 | 14.44° C | 50% | 1020.6 hPa | 0 mm | - | 59 W/m² | - |
| 1777564318 | 15° C | 51% | 1020.5 hPa | 0 mm | - | 58 W/m² | - |
| 1777564011 | 15° C | 53% | 1020.6 hPa | 0 mm | - | 59 W/m² | - |
| 1777563703 | 15° C | 51% | 1021 hPa | 0 mm | - | 60 W/m² | - |
| 1777563395 | 15° C | 50% | 1020.9 hPa | 0 mm | - | 72 W/m² | - |
| 1777563088 | 15° C | 52% | 1020.6 hPa | 0 mm | - | 62 W/m² | - |
| 1777562472 | 15° C | 53% | 1020.3 hPa | 0 mm | - | 144 W/m² | - |
| 1777562165 | 15° C | 54% | 1020.2 hPa | 0 mm | - | 65 W/m² | - |
| 1777561857 | 15° C | 52% | 1020.3 hPa | 0 mm | - | 168 W/m² | - |
| 1777561550 | 15° C | 52% | 1020.4 hPa | 0 mm | - | 475 W/m² | - |
| 1777561243 | 15° C | 54% | 1020.3 hPa | 0 mm | - | 491 W/m² | - |
| 1777560935 | 15° C | 52% | 1020.4 hPa | 0 mm | - | 506 W/m² | - |
| 1777560628 | 15° C | 52% | 1020.2 hPa | 0 mm | - | 523 W/m² | - |
| 1777560320 | 15° C | 51% | 1020.3 hPa | 0 mm | - | 542 W/m² | - |
| 1777560013 | 14.44° C | 52% | 1020.5 hPa | 0 mm | - | 558 W/m² | - |
| 1777559398 | 15° C | 53% | 1020.1 hPa | 0 mm | - | 585 W/m² | - |
* Rain latest hour (hover to see other rain measurements)
** Current wind speed in m/s (hover to see current wind gust speed)